sat.trackr.live / text

‹ back to catalog

ONEWEB-0272

NORAD 48990 · 2021-060Z

PAYLOAD ACTIVE UNKNOWN

§ Identity

Operator
Country
UK
Launch date
2021-07-01
Launch site
VOSTO
Launch vehicle
Mass (kg)
RCS (m²)

Purposes: comms

External: N2YO · Heavens-Above · Gunter

§ Orbital elements

Epoch: 2026-05-25T03:58:56.464320Z

Period
109.37 min
Inclination
87.9108°
Eccentricity
0.0002077
Mean motion
13.16595307 rev/d
Perigee alt
1,196.2 km
Apogee alt
1,199.3 km
Semi-major
7,575.9 km
B*
1.5882e-4
RAAN
233.3555°
Arg perigee
91.7487°
Mean anomaly
268.3881°
Rev number
23,658

§ Raw data

ONEWEB-02721 48990U 21060Z   26145.16593130  .00000074  00000+0  15882-3 0  99922 48990  87.9108 233.3555 0002077  91.7487 268.3881 13.16595307236583

JSON: /api/v1/satellites/48990 · /tle

For live sub-satellite position, see the globe view (requires WebGL).

§ Visibility from observer

Set your observer location to see the next 7 days of passes ≥ 10°. The values pass through the URL so the page stays shareable.

No JS? Fill the form by hand. The geolocation button needs JavaScript.